Regional Weather Roundup
Issued by NWS Albany, NY

Home | Current Version | Previous Version | Text Only | Print | Product List | Glossary On
Versions: 1 2 3 4 5 6 7 8 9 10 11 12 13 14 15 16 17 18 19 20 21 22 23 24 25 26 27 28 29 30 31 32 33 34 35 36 37 38 39 40 41 42 43 44 45 46 47 48 49 50
000
ASUS41 KALY 020010
RWRALY

NEW YORK STATE HOURLY WEATHER ROUNDUP
NATIONAL WEATHER SERVICE ALBANY NY
800 PM EDT SAT AUG 01 2015

NOTE: "FAIR" INDICATES FEW OR NO CLOUDS BELOW 12,000 FEET WITH NO
SIGNIFICANT WEATHER AND/OR NO OBSTRUCTIONS TO VISIBILITY.

NYZ032-033-038>043-046>054-057>066-NYZ062>081-020100-
EAST


CITY           SKY/WX    TMP DP  RH WIND       PRES   REMARKS
ALBANY         PTCLDY    76  54  46 NW8       29.80R
GLENS FALLS    CLEAR     75  49  39 W9        29.79R
POUGHKEEPSIE   CLEAR     82  53  36 W7        29.79R
NEWBURGH       PTCLDY    79  55  44 W14       29.82R
MONTGOMERY     CLEAR     77  57  50 SW5       29.81R
WHITE PLAINS   PTCLDY    79  57  46 NW7       29.81R
ISLIP          PTCLDY    81  58  45 NW6       29.78R
NEW YORK CITY  PTCLDY    84  56  38 NW14G20   29.79R
CENTRAL PARK   CLEAR     84  55  36 W9        29.83R
$$

NYZ005>009-017-018-044>046-055-056-020100-
CENTRAL


CITY           SKY/WX    TMP DP  RH WIND       PRES   REMARKS
FULTON         CLEAR     69  58  67 CALM      29.83R
SYRACUSE       PTCLDY    71  56  58 NW5       29.83R
ROME           PTCLDY    70  55  59 W8        29.84R
ELMIRA         PTCLDY    70  58  65 NW3       29.85R
BINGHAMTON     CLEAR     71  52  50 NW6       29.88R
MONTICELLO     CLEAR     73  55  53 NW7       29.87S
$$

NYZ026>034-041>043-020100-
NORTH


CITY           SKY/WX    TMP DP  RH WIND       PRES   REMARKS
WATERTOWN      CLEAR     70  58  65 SW7       29.81R
FORT DRUM      NOT AVBL
MASSENA        TSTM      62  58  86 S13       29.79F VSB 3/4
SARANAC LAKE     N/A     62  55  77 VRB6      29.84R
PLATTSBURGH    MOCLDY    71  57  61 W9        29.76R
$$

NYZ001>004-010>016-019>021-020100-
WEST


CITY           SKY/WX    TMP DP  RH WIND       PRES   REMARKS
NIAGARA FALLS  PTCLDY    71  59  65 W14G23    29.84R
BUFFALO        MOCLDY    70  58  65 SW9       29.86R
DUNKIRK        PTCLDY    73  58  59 W9G17     29.89R
JAMESTOWN      MOCLDY    68  52  56 W6        29.93S
WELLSVILLE     CLEAR     68  52  56 W7        29.94R
ROCHESTER      MOCLDY    73  56  54 W13       29.84S
PENN YAN       CLEAR     72  57  59 SW6       29.86S
$$

             KEY
       WCI = WIND CHILL INDEX
       VSB = VISIBILITY
       HX  = HEAT INDEX
$$



USA.gov is the U.S. government's official web portal to all federal, state and local government web resources and services.